Home   Weather   Resolute Bay   Past weeks

Flag for Canada Past Weather in Resolute Bay, Nunavut, Canada — April 2015

Now
-22 °F

Snow flurries. Passing clouds.


Feels Like: -51 °F
Forecast: -22 / -15 °F
Wind: 20 mph from Southeast

Location: Resolute

Current Time: Feb 24, 2018 at 9:39:22 pm

Latest Report: Feb 24, 2018 at 9:00 pm


Visibility: 10 mi

Pressure: 29.23 "Hg

Humidity: 75%

Dew Point: -27 °F

Location of Resolute BayLocation

April 2015 Weather in Resolute Bay — Graph

°F

High & Low Weather Summary for April 2015

 TemperatureHumidityPressure
High18 °F (Apr 25, 6:00 pm)92% (Apr 16, 11:00 pm)30.96 "Hg (Apr 16, 11:00 pm)
Low-29 °F (Apr 13, 12:00 am)56% (Apr 24, 11:00 am)29.33 "Hg (Apr 17, 7:00 am)
Average-5 °F77%30.05 "Hg
* Reported Apr 1 12:00 am — Apr 30 11:00 pm, Resolute Bay. Weather by CustomWeather, © 2018

Note: Actual official high and low records may vary slightly from our data, if they occured in-between our weather recording intervals... More about our weather records

Advertising

Resolute Bay Weather History for April 1, 2015

Scroll right to see more
 ConditionsComfort  
Time TempWeatherWind HumidityBarometerVisibility
12:00 am
Wed, Apr 1
-8 °FPassing clouds.14 mph77%30.21 "Hg15 mi
1:00 am-6 °FClear.12 mph70%30.21 "Hg15 mi
2:00 am-4 °FClear.8 mph71%30.22 "Hg15 mi
3:00 am-8 °FClear.3 mph77%30.23 "Hg15 mi
4:00 am-9 °FClear.5 mph70%30.24 "Hg15 mi
5:00 am-6 °FPassing clouds.10 mph70%30.25 "Hg15 mi
6:00 am-8 °FPassing clouds.6 mph70%30.26 "Hg15 mi
7:00 am-9 °FClear.2 mph77%30.26 "Hg15 mi
8:00 am-4 °FSunny.No wind71%30.27 "Hg15 mi
9:00 am-6 °FSunny.10 mph59%30.28 "Hg15 mi
10:00 am-4 °FSunny.10 mph71%30.28 "Hg15 mi
11:00 am-4 °FSunny.7 mph71%30.28 "Hg15 mi
12:00 pm-2 °FPassing clouds.5 mph71%30.29 "Hg15 mi
1:00 pm-2 °FPassing clouds.2 mph71%30.29 "Hg15 mi
2:00 pm-4 °FSunny.2 mph77%30.30 "Hg15 mi
3:00 pm-2 °FPassing clouds.3 mph65%30.31 "Hg15 mi
Weather by CustomWeather, © 2018

See weather overview